Location: Ajisawe
(8.4333°N, 4.3833°E)
Time: 22:02:56
(UTC+00:00)

Vanguard 2 Rocket - Pass Details

Date: 28 April 2021
Orbit: 554 x 3326 km, 32.9° (Epoch: 16 May)

Event Time Altitude Azimuth Distance (km) Brightness Sun altitude
Rises 17:51:45 0° 303° (WNW) 7,308 13.2 -0.7°
Reaches altitude 10° 17:56:47 10° 304° (NW) 6,258 12.7 -1.9°
Maximum altitude 18:16:37 88° 216° (SW) 2,646 9.2 -6.7°
Drops below altitude 10° 18:29:07 10° 126° (SE) 4,198 9.7 -9.6°
Enters shadow 18:29:34 - 126° (SE) 4,312 9.7 -9.8°
Sets 18:31:47 0° 126° (SE) 4,892 - -10.3°
